+ View the NASA Portal
+ Center for Near-Earth Object Studies
JPL Small-Body Database Browser
Search:
[
help
]
175655 (3306 T-3)
Classification:
Main-belt Asteroid
SPK-ID:
2175655
[
Ephemeris
|
Orbit Diagram
|
Orbital Elements
|
Mission Design
|
Physical Parameters
|
Discovery Circumstances
|
Close-Approach Data
]
[ show orbit diagram ]
Orbital Elements at Epoch 2459200.5 (2020-Dec-17.0) TDB
Reference:
JPL 13
(heliocentric ecliptic J2000)
Element
Value
Uncertainty (1-sigma)
Units
e
.2405855880438589
4.9482e-08
a
2.216644546211619
6.4848e-09
au
q
1.683351814577084
1.0747e-07
au
i
.7354179391224536
4.1143e-06
deg
node
107.2286973426248
0.00033515
deg
peri
274.4674634245315
0.00033535
deg
M
28.69161874802593
8.5111e-06
deg
t
p
2459104.428391410077
(2020-Sep-11.92839141)
2.8479e-05
TDB
period
1205.431432646226
3.30
5.2897e-06
1.448e-08
d
yr
n
.2986482600754065
1.3105e-09
deg/d
Q
2.749937277846154
8.0449e-09
au
Orbit Determination Parameters
# obs. used (total)
338
data-arc span
15807 days (43.28 yr)
first obs. used
1977-10-07
last obs. used
2021-01-16
planetary ephem.
DE441
SB-pert. ephem.
SB441-N16
condition code
0
norm. resid. RMS
.48977
source
ORB
producer
Otto Matic
solution date
2021-Apr-13 21:06:16
Additional Information
Earth MOID
= .685209 au
Jupiter MOID
= 2.70918 au
T_jup
= 3.614
[ show covariance matrix ]
[
Ephemeris
|
Orbit Diagram
|
Orbital Elements
|
Mission Design
|
Physical Parameters
|
Discovery Circumstances
|
Close-Approach Data
]
Physical Parameter Table
Parameter
Symbol
Value
Units
Sigma
Reference
Notes
absolute magnitude
H
17.8
n/a
MPO433133
175655 (3306 T-3)
Discovered 1977-Oct-16 by van Houten, C. J., van Houten-Groeneveld, I., Gehrels, T. at Palomar
Reference:
20080122/Numbers.arc
Last Updated:
2008-01-28
[ show close-approach data ]
Alternate Designations
3306 T-3
= 2000 QU19
[
Ephemeris
|
Orbit Diagram
|
Orbital Elements
|
Mission Design
|
Physical Parameters
|
Discovery Circumstances
|
Close-Approach Data
]
2021-Apr-16 15:50 UT
(server date/time)
Site Manager:
Ryan S. Park
Webmaster
:
Alan B. Chamberlin